Wind_Speed
18 15 14 13 11 9 10 11 13 14 15 15 16 18 18 17 16 15 13 12 11 10 9 7 6 5 5 4 3 2 1 1 1 1 2 3 4 4 4 3 2 2 2
18 15 14 12 10 9 9 10 11 13 14 16 16 18 19 17 16 15 14 13 12 10 10 8 7 6 5 4 3 2 2 1 1 1 1 2 2 3 3 3 3 2 2
18 16 14 12 10 8 8 10 9 10 13 15 16 17 18 17 15 15 14 14 13 12 11 10 8 7 7 5 4 3 3 3 2 1 0 0 1 2 2 2 2 2 3
18 16 14 12 10 7 7 9 9 10 12 14 16 17 17 17 16 15 14 14 14 14 13 11 10 9 8 7 6 5 5 4 4 3 3 3 3 3 3 4 4 4 4
18 16 14 12 10 7 7 7 8 10 11 12 15 16 17 17 16 15 15 15 15 14 13 12 11 10 10 9 8 8 7 6 6 6 6 6 6 6 6 6 6 7 7
18 16 13 12 10 6 5 5 7 9 10 11 13 15 17 17 16 16 16 16 15 15 15 14 12 12 11 11 10 10 10 9 9 9 9 10 10 10 10 10 10 10 10
17 15 13 12 9 6 4 3 5 7 9 11 13 14 16 17 17 16 16 16 16 16 15 14 14 13 13 13 13 13 12 12 12 12 13 13 14 14 14 14 14 14 14
15 14 13 12 9 6 4 3 5 7 9 10 12 14 15 16 17 17 16 16 17 16 16 16 15 15 15 15 15 15 15 15 16 16 16 17 17 18 19 19 19 20 20
15 15 13 12 10 6 4 3 4 6 7 8 10 13 14 16 17 17 17 17 17 17 16 16 17 17 17 16 16 17 17 18 18 19 20 20 21 22 22 23 23 23 24
15 14 13 11 9 6 4 3 3 4 6 7 8 11 13 16 17 17 18 18 17 16 16 17 17 18 18 18 18 19 19 20 21 21 22 23 24 25 25 25 26 27 27
15 14 13 11 9 6 4 4 4 5 6 8 9 11 12 13 15 16 17 17 17 17 18 18 19 19 20 21 21 21 21 22 23 23 24 25 26 27 27 28 28 28 29
16 14 13 11 10 7 5 4 4 5 7 8 9 9 11 12 13 14 15 17 18 18 19 21 20 21 21 22 22 22 23 23 24 25 26 27 28 28 29 29 30 31 32
17 15 13 11 10 8 7 6 5 5 6 8 9 10 11 12 13 15 16 17 18 19 20 20 21 21 22 22 23 23 23 24 24 25 26 27 28 29 30 31 32 33 34
19 18 15 13 11 10 8 7 7 7 7 7 9 10 10 12 13 15 15 16 18 19 20 21 21 22 23 23 24 24 24 24 24 25 26 27 28 29 31 32 33 34 36
21 18 17 16 13 12 10 9 8 8 9 9 9 10 11 12 13 14 15 16 18 20 21 21 21 22 22 23 23 23 24 24 25 26 27 28 29 31 33 35 36 37 39
23 21 21 19 16 15 13 11 10 10 10 11 11 11 12 13 14 15 16 17 18 18 19 20 20 20 21 22 23 24 25 27 28 28 30 30 31 33 35 36 38 39 40
26 26 24 21 19 17 16 14 13 13 13 13 13 13 14 15 16 17 17 17 17 17 18 19 20 21 22 22 24 25 27 29 30 32 33 34 34 36 38 40 41 42 43
31 29 27 25 22 21 20 18 17 16 16 16 16 16 17 18 18 19 19 18 18 18 18 19 20 22 23 25 27 29 30 32 34 35 36 38 39 40 42 43 43 45 46
33 31 29 28 25 24 22 21 20 20 19 19 19 19 19 19 20 20 21 21 21 21 22 23 24 25 27 29 30 32 33 34 36 37 38 39 40 42 44 45 46 47 49
34 31 31 30 28 27 25 24 23 23 22 22 22 21 21 21 21 22 23 24 25 26 26 27 28 29 30 31 32 34 36 37 39 40 41 42 43 45 47 48 50 51 52
34 33 32 32 31 30 29 27 27 26 25 24 24 24 24 24 24 25 25 26 28 29 30 31 32 32 33 34 35 37 38 40 42 43 43 44 46 47 49 51 53 54 56
34 34 34 34 33 32 31 30 30 29 27 27 26 27 27 27 27 28 28 30 31 32 33 33 33 33 33 35 37 38 40 41 43 45 46 48 50 51 53 54 56 58 59
35 34 34 35 34 34 34 33 31 30 30 30 31 30 29 30 30 30 31 32 33 33 33 33 34 34 35 37 39 40 41 43 45 48 50 52 54 55 57 59 60 62 63
33 33 34 34 34 34 34 33 32 32 32 32 33 32 32 32 31 32 32 32 33 33 34 35 36 37 38 40 41 42 44 46 49 51 54 56 57 59 60 61 62 62 62
32 32 32 33 33 33 33 33 33 33 34 33 34 33 33 32 31 31 32 32 33 33 34 36 37 39 40 41 43 45 47 50 53 55 56 58 59 60 60 60 60 59 59
30 31 32 33 33 33 33 34 33 32 32 33 32 31 29 28 29 30 31 32 33 34 36 37 39 41 43 45 47 50 52 54 55 56 57 58 58 58 58 58 57 56 55
Wind_Direction
331 326 320 314 306 290 270 255 246 239 233 228 224 217 217 220 223 227 231 232 234 233 232 234 233 234 239 242 248 251 233 204 122 78 68 63 60 59 62 60 50 52 49
335 330 328 321 309 291 273 258 251 242 231 228 223 215 215 217 221 224 228 230 230 230 229 228 230 232 233 233 234 228 219 213 176 110 83 61 51 44 47 50 46 41 18
340 337 333 326 314 294 270 261 249 236 228 227 222 216 216 218 221 224 226 224 225 227 226 224 227 232 232 231 230 228 228 231 233 239 258 355 11 351 356 12 3 348 350
342 340 338 332 317 293 272 257 244 229 225 227 221 218 216 217 218 221 222 222 224 225 225 225 227 231 233 231 232 236 238 240 247 258 270 285 295 304 311 313 313 317 322
342 345 343 339 331 306 278 257 235 229 227 225 219 216 218 217 218 221 222 223 223 223 225 225 227 232 234 235 236 240 242 247 254 263 273 281 286 289 292 296 294 297 299
338 343 346 344 340 326 285 244 230 229 226 221 214 214 214 216 217 220 224 224 223 223 225 227 228 232 236 236 239 243 247 251 257 264 272 279 284 288 289 290 289 289 289
336 340 344 345 342 332 301 242 222 220 219 218 213 212 213 213 215 220 222 224 225 225 226 228 231 234 238 241 244 248 253 257 262 267 271 275 278 283 285 286 285 284 284
336 341 344 346 343 334 308 241 221 219 215 215 214 215 216 216 217 221 224 225 225 228 230 233 235 238 241 245 249 251 256 261 265 268 271 274 276 278 281 283 283 283 283
329 337 343 341 340 328 313 269 229 220 219 219 219 216 219 219 220 224 225 225 226 230 235 237 240 242 245 249 252 255 260 264 268 270 271 272 274 277 279 281 283 284 284
322 329 335 338 338 331 313 286 236 221 221 218 215 215 217 220 223 225 227 227 230 232 236 240 243 245 248 252 256 260 263 267 270 271 272 273 275 276 278 280 281 283 284
317 321 329 332 335 334 315 294 266 245 233 223 223 220 221 224 226 229 232 233 235 238 241 244 246 250 254 256 260 263 265 268 271 272 273 275 276 277 278 279 280 281 283
308 313 318 323 327 323 313 288 271 249 235 228 228 229 227 228 231 234 237 240 244 245 246 248 251 254 258 260 262 264 267 270 272 273 274 276 277 278 279 280 280 281 282
295 301 308 311 317 318 309 291 277 262 244 234 234 237 235 234 238 241 243 245 248 249 251 253 255 258 259 262 265 268 271 272 274 276 277 278 278 279 281 281 282 282 283
283 287 294 301 302 305 305 293 281 273 265 254 246 243 242 244 247 248 248 249 252 255 255 259 262 263 263 265 269 270 273 274 277 278 279 279 280 281 282 283 283 283 284
275 277 284 289 291 293 294 291 282 275 270 265 258 256 255 256 256 257 258 260 261 261 263 263 264 265 266 267 270 272 274 277 280 280 282 283 283 284 284 284 284 284 284
272 272 278 279 280 281 281 282 280 277 274 272 270 268 264 263 263 265 265 265 268 270 268 265 267 268 268 268 270 272 275 278 281 281 283 285 286 286 286 287 287 286 286
270 272 272 272 273 273 274 274 273 274 275 275 274 273 269 268 268 271 273 273 276 281 276 270 269 270 271 271 274 278 282 283 284 285 287 287 287 286 287 288 288 287 287
269 269 269 267 268 269 269 270 270 272 273 274 275 276 273 272 272 272 274 275 278 279 279 276 275 274 276 278 280 282 284 285 286 286 287 288 288 288 289 289 289 289 289
265 265 265 264 264 265 267 267 268 271 273 275 276 278 276 275 275 277 276 274 277 279 280 279 280 281 282 282 282 284 285 287 288 288 289 290 290 290 290 290 290 290 290
260 259 259 259 261 262 264 264 267 270 272 273 276 277 276 276 276 278 277 274 276 278 281 282 283 284 284 284 285 287 288 289 290 290 291 292 291 291 291 291 291 291 290
257 256 256 256 258 260 263 264 266 269 272 273 275 275 274 274 275 276 278 278 279 281 282 282 283 283 284 286 288 289 290 291 291 292 292 292 292 292 292 291 291 291 290
255 255 254 256 258 259 260 261 264 267 269 271 273 275 274 273 275 276 278 280 281 281 283 284 284 286 287 289 290 291 291 292 292 293 294 294 294 294 293 293 292 292 291
254 254 253 254 256 257 257 259 262 265 268 270 271 274 275 274 275 277 278 280 282 283 284 285 286 287 289 290 291 292 293 293 294 295 295 295 295 295 294 294 294 293 293
252 253 253 253 253 254 256 258 260 264 267 268 269 270 273 273 274 274 276 279 281 284 287 290 291 290 291 291 291 293 294 295 295 295 295 295 296 295 295 295 295 294 294
251 251 250 251 252 253 255 257 260 263 266 269 269 268 269 270 272 275 279 282 285 287 289 291 293 294 295 295 295 296 296 296 296 296 296 297 297 297 296 296 296 295 294
250 249 249 251 251 252 254 256 259 261 263 267 269 269 269 271 276 281 284 286 289 291 293 295 296 296 297 297 298 298 298 298 298 298 299 299 299 298 298 297 296 296 295
Height
5846 5843 5840 5837 5835 5835 5835 5835 5836 5838 5841 5845 5848 5853 5857 5860 5864 5867 5869 5871 5873 5874 5876 5877 5878 5879 5880 5880 5880 5881 5881 5882 5882 5882 5883 5883 5883 5883 5883 5883 5884 5884 5885
5845 5842 5839 5836 5834 5834 5833 5833 5833 5835 5839 5843 5846 5850 5854 5857 5861 5864 5867 5869 5871 5873 5874 5876 5877 5878 5879 5879 5880 5880 5881 5882 5882 5882 5883 5883 5884 5883 5884 5884 5884 5884 5885
5844 5841 5838 5835 5834 5832 5832 5832 5832 5834 5837 5840 5844 5847 5851 5855 5859 5862 5864 5867 5869 5871 5872 5874 5876 5877 5878 5879 5879 5880 5881 5881 5882 5882 5883 5883 5883 5883 5884 5884 5884 5884 5885
5843 5840 5837 5834 5832 5831 5831 5831 5831 5833 5835 5838 5842 5845 5849 5853 5856 5859 5862 5864 5866 5868 5870 5872 5874 5876 5877 5878 5879 5879 5880 5881 5881 5882 5882 5883 5883 5883 5884 5884 5884 5884 5884
5843 5839 5836 5833 5831 5830 5829 5829 5830 5832 5834 5837 5839 5843 5847 5850 5854 5857 5859 5862 5864 5866 5869 5871 5872 5874 5875 5876 5877 5878 5879 5880 5880 5881 5881 5881 5882 5882 5883 5883 5883 5883 5883
5842 5839 5836 5833 5831 5829 5829 5829 5830 5831 5833 5835 5837 5841 5845 5848 5851 5854 5857 5859 5862 5864 5867 5868 5870 5872 5873 5874 5875 5876 5877 5878 5878 5879 5879 5880 5880 5880 5881 5881 5881 5881 5881
5842 5839 5836 5833 5831 5829 5828 5828 5829 5831 5832 5834 5836 5839 5843 5846 5849 5852 5855 5857 5860 5862 5864 5866 5868 5869 5871 5872 5873 5874 5875 5876 5876 5877 5877 5877 5878 5878 5878 5878 5878 5878 5878
5841 5839 5836 5833 5831 5829 5829 5828 5829 5830 5831 5833 5835 5838 5841 5844 5847 5850 5852 5855 5857 5859 5862 5863 5865 5867 5868 5869 5870 5871 5872 5873 5873 5874 5874 5874 5874 5874 5874 5874 5874 5874 5875
5841 5838 5836 5833 5831 5830 5829 5828 5829 5830 5831 5833 5834 5837 5839 5842 5844 5847 5849 5852 5854 5857 5859 5861 5862 5864 5865 5866 5867 5868 5869 5869 5870 5870 5870 5870 5870 5870 5870 5870 5870 5870 5870
5840 5838 5836 5834 5832 5830 5829 5829 5829 5830 5831 5832 5833 5835 5837 5839 5842 5844 5846 5849 5851 5853 5855 5857 5858 5860 5861 5862 5863 5864 5865 5865 5865 5866 5866 5866 5866 5865 5865 5864 5864 5864 5863
5838 5836 5835 5833 5832 5830 5829 5829 5829 5829 5830 5831 5833 5834 5836 5838 5839 5841 5844 5846 5848 5850 5851 5853 5854 5856 5857 5858 5859 5860 5860 5860 5860 5860 5860 5860 5860 5860 5859 5859 5858 5858 5857
5836 5835 5834 5833 5831 5830 5829 5829 5828 5828 5828 5830 5831 5833 5834 5836 5838 5839 5841 5843 5844 5846 5847 5849 5850 5852 5852 5853 5854 5854 5855 5855 5855 5855 5855 5854 5854 5853 5853 5852 5852 5851 5850
5834 5834 5833 5832 5831 5830 5829 5828 5828 5827 5827 5828 5830 5831 5832 5834 5835 5837 5838 5839 5840 5842 5843 5844 5845 5846 5847 5848 5848 5849 5849 5849 5849 5849 5848 5848 5847 5847 5846 5845 5844 5843 5842
5831 5831 5831 5830 5829 5829 5828 5828 5827 5827 5827 5828 5828 5829 5830 5831 5833 5834 5834 5835 5836 5837 5838 5839 5840 5841 5842 5842 5843 5843 5843 5843 5843 5842 5841 5841 5840 5839 5838 5837 5836 5835 5834
5827 5827 5827 5827 5827 5827 5827 5827 5826 5826 5826 5826 5826 5827 5828 5829 5830 5831 5831 5832 5832 5833 5833 5834 5834 5835 5835 5836 5836 5837 5837 5837 5836 5835 5834 5834 5833 5832 5830 5829 5828 5826 5824
5822 5823 5824 5824 5824 5825 5825 5825 5825 5825 5825 5825 5825 5826 5826 5826 5827 5827 5827 5828 5828 5828 5828 5828 5829 5829 5830 5830 5830 5830 5830 5830 5829 5828 5827 5826 5825 5823 5821 5819 5817 5816 5814
5816 5818 5819 5819 5820 5821 5821 5822 5822 5822 5822 5822 5823 5823 5823 5823 5823 5823 5823 5823 5823 5823 5823 5823 5823 5823 5824 5824 5824 5823 5823 5822 5821 5820 5818 5817 5815 5813 5811 5809 5807 5804 5802
5811 5812 5813 5815 5816 5817 5817 5818 5818 5819 5819 5819 5818 5819 5818 5818 5818 5818 5819 5819 5819 5819 5818 5818 5818 5818 5818 5818 5817 5816 5815 5814 5813 5811 5809 5807 5805 5803 5800 5797 5795 5792 5790
5804 5805 5807 5809 5810 5811 5812 5813 5813 5814 5814 5814 5814 5813 5813 5813 5813 5813 5813 5813 5814 5814 5813 5813 5813 5812 5811 5810 5809 5808 5806 5805 5803 5801 5799 5797 5794 5791 5788 5785 5783 5780 5776
5796 5798 5800 5802 5804 5805 5806 5807 5808 5808 5808 5809 5808 5808 5808 5808 5808 5808 5808 5808 5808 5807 5807 5807 5806 5805 5804 5802 5801 5799 5797 5795 5792 5790 5788 5786 5782 5779 5775 5773 5769 5766 5762
5788 5791 5793 5794 5796 5798 5800 5801 5801 5802 5803 5803 5802 5802 5802 5802 5802 5802 5801 5801 5801 5800 5800 5799 5798 5797 5795 5793 5791 5789 5787 5784 5781 5779 5777 5774 5770 5767 5763 5759 5755 5752 5747
5780 5782 5785 5787 5789 5791 5793 5794 5795 5796 5797 5797 5797 5796 5796 5796 5795 5795 5795 5794 5793 5792 5791 5790 5789 5788 5786 5784 5781 5779 5776 5773 5770 5767 5763 5760 5756 5753 5749 5744 5740 5735 5731
5771 5774 5776 5779 5781 5783 5785 5786 5787 5788 5789 5790 5789 5789 5789 5789 5788 5788 5788 5786 5785 5784 5783 5781 5780 5778 5777 5774 5771 5769 5766 5762 5758 5754 5750 5746 5742 5737 5732 5728 5722 5717 5712
5762 5764 5768 5770 5773 5775 5777 5779 5780 5781 5781 5782 5782 5782 5782 5781 5781 5780 5779 5778 5777 5775 5774 5772 5770 5769 5767 5764 5761 5758 5754 5750 5746 5741 5736 5731 5726 5721 5715 5709 5704 5698 5692
5754 5757 5759 5762 5765 5767 5769 5771 5772 5773 5774 5774 5774 5774 5773 5773 5772 5772 5771 5770 5768 5766 5765 5763 5761 5758 5756 5752 5749 5745 5741 5737 5732 5726 5721 5715 5709 5703 5697 5691 5685 5679 5673
5747 5750 5752 5754 5757 5759 5761 5763 5764 5765 5766 5767 5767 5766 5766 5765 5765 5764 5763 5761 5760 5758 5756 5753 5751 5747 5744 5740 5736 5731 5726 5721 5716 5710 5704 5698 5691 5685 5679 5673 5667 5660 5655